Location: Recife
(8.0585°S, 34.8848°W)
Time: 11:29:16
(UTC-03:00)

Vanguard 2 - Pass Details

Date: 21 April 2026
Orbit: 554 x 2894 km, 32.9° (Epoch: 8 May)

Event Time Altitude Azimuth Distance (km) Brightness Sun altitude
Rises 20:19:43 0° 270° (W) 4,864 12.3 -45.9°
Reaches altitude 10° 20:22:54 10° 262° (W) 4,182 11.8 -46.7°
Enters shadow 20:33:35 37° 200° (SSW) 3,306 10.6 -49.3°
Maximum altitude 20:33:50 37° 198° (SSW) 3,319 - -49.4°
Drops below altitude 10° 20:48:54 10° 136° (SE) 5,673 - -53.1°
Sets 20:54:11 0° 128° (SE) 6,739 - -54.4°
